Universal City, TX

3:18 AM CST on January 19, 2017 (GMT -0600)
Randolph Air Force Base

Weather History for KRND - May, 2014

Change the Weather History Date:

Tuesday, May 20, 2014

  Actual Average Record
Temperature  
Mean Temperature 76 °F -  
Max Temperature 88 °F 85 °F 97 °F (2008)
Min Temperature 65 °F 66 °F 51 °F (2002)
Cooling Degree Days 12    
Growing Degree Days 26 (Base 50)    
Moisture  
Dew Point 63 °F    
Average Humidity 74    
Maximum Humidity 90    
Minimum Humidity 39    
Precipitation  
Precipitation 0.00 in - - ()
Sea Level Pressure  
Sea Level Pressure 30.02 in    
Wind  
Wind Speed 11 mph (SSE)    
Max Wind Speed 18 mph    
Max Gust Speed 25 mph    
Visibility 10 miles    
Events      
Averages and records for this station are not official NWS values.
T = Trace of Precipitation, MM = Missing Value Source: NWS Daily Summary

Daily Weather History Graph

Daily Weather History Graph

Search for Another Location

Airport or City:

Trip Planner

Search our weather history database for the weather conditions in past years. The results will help you decide how hot, cold, wet, or windy it might be!

Date:

Astronomy

May. 20, 2014 Rise Set
Actual Time 6:37 AM CDT 8:21 PM CDT
Civil Twilight 6:11 AM CDT 8:48 PM CDT
Nautical Twilight 5:39 AM CDT 9:19 PM CDT
Astronomical Twilight 5:06 AM CDT 9:53 PM CDT
Moon 1:03 AM CDT (5/20) 12:34 PM CDT (5/20)
Length of Visible Light 14h 36m
Length of Day
13h 43m
Waning Gibbous, 60% of the Moon is Illuminated
May 20
Waning Gibbous
May 21
Last Quarter
May 28
New
Jun 5
First Quarter
Jun 12
Full

Hourly Weather History & Observations

Time (CDT) Temp. Heat Index Dew Point Humidity Pressure Visibility Wind Dir Wind Speed Gust Speed Precip Events Conditions
12:03 AM 69.8 °F - 62.6 °F 78% 30.04 in 10.0 mi South 10.4 mph - N/A   Mostly Cloudy
12:18 AM 69.8 °F - 64.4 °F 83% 30.04 in 10.0 mi South 12.7 mph - N/A   Overcast
12:28 AM 69.8 °F - 64.4 °F 83% 30.04 in 10.0 mi South 12.7 mph 19.6 mph N/A   Overcast
12:58 AM 70.2 °F - 64.4 °F 82% 30.02 in 10.0 mi South 13.8 mph - N/A   Overcast
1:33 AM 69.8 °F - 64.4 °F 83% 30.04 in 10.0 mi South 10.4 mph - N/A   Overcast
1:38 AM 69.8 °F - 64.4 °F 83% 30.04 in 10.0 mi South 12.7 mph - N/A   Mostly Cloudy
1:58 AM 69.6 °F - 64.8 °F 84% 30.01 in 10.0 mi South 12.7 mph - N/A   Mostly Cloudy
2:03 AM 69.8 °F - 64.4 °F 83% 30.03 in 10.0 mi South 11.5 mph - N/A   Mostly Cloudy
2:13 AM 69.8 °F - 64.4 °F 83% 30.03 in 10.0 mi South 9.2 mph - N/A   Mostly Cloudy
2:18 AM 69.8 °F - 64.4 °F 83% 30.03 in 10.0 mi SSE 9.2 mph - N/A   Mostly Cloudy
2:23 AM 69.8 °F - 64.4 °F 83% 30.03 in 10.0 mi SSE 9.2 mph - N/A   Mostly Cloudy
2:33 AM 68.0 °F - 64.4 °F 88% 30.03 in 10.0 mi South 11.5 mph - N/A   Scattered Clouds
2:58 AM 68.5 °F - 63.9 °F 85% 30.00 in 10.0 mi SSE 9.2 mph - N/A   Scattered Clouds
3:03 AM 68.0 °F - 64.4 °F 88% 30.02 in 10.0 mi South 9.2 mph - N/A   Mostly Cloudy
3:33 AM 68.0 °F - 64.4 °F 88% 30.02 in 10.0 mi SSE 9.2 mph - N/A   Scattered Clouds
3:43 AM 68.0 °F - 64.4 °F 88% 30.02 in 10.0 mi South 9.2 mph - N/A   Mostly Cloudy
3:48 AM 68.0 °F - 64.4 °F 88% 30.02 in 10.0 mi South 8.1 mph - N/A   Mostly Cloudy
3:53 AM 68.0 °F - 64.4 °F 88% 30.02 in 10.0 mi South 8.1 mph - N/A   Scattered Clouds
3:58 AM 67.8 °F - 63.9 °F 87% 30.00 in 10.0 mi South 6.9 mph - N/A   Scattered Clouds
4:28 AM 68.0 °F - 64.4 °F 88% 30.02 in 10.0 mi South 8.1 mph - N/A   Mostly Cloudy
4:33 AM 68.0 °F - 64.4 °F 88% 30.02 in 10.0 mi South 9.2 mph - N/A   Mostly Cloudy
4:43 AM 68.0 °F - 64.4 °F 88% 30.02 in 10.0 mi South 8.1 mph - N/A   Mostly Cloudy
4:58 AM 68.2 °F - 64.4 °F 88% 30.00 in 10.0 mi South 9.2 mph - N/A   Overcast
5:03 AM 68.0 °F - 64.4 °F 88% 30.02 in 10.0 mi South 10.4 mph - N/A   Mostly Cloudy
5:13 AM 68.0 °F - 62.6 °F 83% 30.02 in 10.0 mi South 12.7 mph 19.6 mph N/A   Mostly Cloudy
5:18 AM 68.0 °F - 62.6 °F 83% 30.02 in 10.0 mi South 16.1 mph 20.7 mph N/A   Mostly Cloudy
5:58 AM 67.1 °F - 61.7 °F 83% 30.00 in 10.0 mi South 11.5 mph - N/A   Overcast
6:18 AM 66.2 °F - 62.6 °F 88% 30.03 in 10.0 mi South 10.4 mph - N/A   Scattered Clouds
6:58 AM 65.5 °F - 62.4 °F 90% 30.02 in 10.0 mi South 6.9 mph - N/A   Partly Cloudy
7:58 AM 66.9 °F - 63.3 °F 88% 30.04 in 10.0 mi SSE 8.1 mph - N/A   Partly Cloudy
8:13 AM 68.0 °F - 62.6 °F 83% 30.06 in 10.0 mi South 9.2 mph - N/A   Mostly Cloudy
8:18 AM 68.0 °F - 64.4 °F 88% 30.07 in 10.0 mi South 9.2 mph - N/A   Mostly Cloudy
10:38 AM 77.0 °F - 60.8 °F 57% 30.08 in 10.0 mi South 16.1 mph 21.9 mph N/A   Scattered Clouds
10:58 AM 78.4 °F - 61.5 °F 56% 30.06 in 10.0 mi SSW 13.8 mph - N/A   Scattered Clouds
11:58 AM 80.1 °F 81.1 °F 61.5 °F 53% 30.06 in 10.0 mi SSW 10.4 mph 19.6 mph N/A   Mostly Cloudy
12:58 PM 82.6 °F 83.1 °F 61.2 °F 48% 30.04 in 10.0 mi South 11.5 mph - N/A   Mostly Cloudy
1:55 PM 85.3 °F 85.4 °F 61.0 °F 44% 30.02 in 10.0 mi South 12.7 mph 23.0 mph N/A   Overcast
1:58 PM 85.3 °F 85.4 °F 61.0 °F 44% 30.02 in 10.0 mi SSE 18.4 mph 24.2 mph N/A   Mostly Cloudy
2:23 PM 86.0 °F 86.1 °F 60.8 °F 43% 30.04 in 10.0 mi SSE 17.3 mph 20.7 mph N/A   Mostly Cloudy
2:33 PM 86.0 °F 86.1 °F 60.8 °F 43% 30.04 in 10.0 mi South 16.1 mph 23.0 mph N/A   Mostly Cloudy
2:58 PM 86.7 °F 86.5 °F 60.6 °F 41% 30.01 in 10.0 mi South 15.0 mph 21.9 mph N/A   Mostly Cloudy
3:58 PM 87.4 °F 87.2 °F 60.6 °F 40% 30.00 in 10.0 mi South 10.4 mph 25.3 mph N/A   Partly Cloudy
4:58 PM 88.3 °F 88.1 °F 60.3 °F 39% 29.98 in 10.0 mi SSE 16.1 mph 20.7 mph N/A   Clear
5:58 PM 88.0 °F 87.6 °F 59.9 °F 39% 29.97 in 10.0 mi SSE 16.1 mph - N/A   Clear
6:58 PM 85.5 °F 85.7 °F 61.0 °F 44% 29.96 in 10.0 mi SE 17.3 mph 23.0 mph N/A   Clear
7:58 PM 81.5 °F 82.4 °F 61.9 °F 51% 29.97 in 10.0 mi SE 15.0 mph - N/A   Clear
8:58 PM 77.5 °F - 63.7 °F 62% 30.01 in 10.0 mi SE 12.7 mph - N/A   Clear
9:58 PM 74.5 °F - 64.8 °F 72% 30.03 in 10.0 mi SE 13.8 mph - N/A   Clear
10:58 PM 72.1 °F - 65.5 °F 79% 30.05 in 10.0 mi SSE 13.8 mph - N/A   Clear
11:33 PM 71.6 °F - 66.2 °F 83% 30.06 in 10.0 mi SSE 11.5 mph - N/A   Mostly Cloudy
11:58 PM 71.6 °F - 66.2 °F 83% 30.05 in 10.0 mi SSE 13.8 mph - N/A   Overcast